SLS R/B (54258 NORAD) Tracking and Keplerian Element Data

This shows tracking and keplerian element data for the satellite.

Feedback or suggestion? Click here.




ElementValue
Catalog54258
NameSLS R/B
Epoch Orbit4
Epoch Day320.38
Epoch Year2022
RAAN10.591
Inclination30.501
Eccentricity0.9639665
Argument of Perigee20.882
Mean Anonmoly1.079
Mean Motion0.10372534
Decay Rate-0.00015394
L11 54258U 22156B 22320.38000000 -.00015394 00000+0 00000+0 0 9991
L22 54258 30.5010 10.5910 9639665 20.8820 1.0790 0.10372534 41



Live tracking and technical data element details for SLS R/B (NORAD 54258). SLS R/B can be tracked NOW for your location showing map with azimuth and elevation plus other details from your city location.







IsCatalogInMostPopularTable: catalog: 54258, numindb: 9
Update: records affected: 1



GetName: 54258 SLS R/B

Hit Count: updated at: Sun, 04 Dec 2022 22:06:37 GMT